Location: West Cummington
(42.4920°N, 72.9680°W)
Time: 20:46:35
(UTC-04:00)

ATLAS 2AS CENTAUR R/B - Visible Passes

Search period start: 26 March 2017 00:00
Search period end: 05 April 2017 00:00
Orbit: 909 x 1303 km, 63.7° (Epoch: 19 March)

Date Brightness Start Highest point End Pass type
(mag) Time Alt. Az. Time Alt. Az. Time Alt. Az.
27 Mar 5.3 06:12:38 10° SSE 06:18:28 25° ESE 06:24:34 10° ENE visible
28 Mar 5.6 05:30:21 10° SE 05:34:13 15° ESE 05:38:11 10° ENE visible
30 Mar 4.8 05:48:11 10° S 05:54:41 32° ESE 06:01:33 10° NE visible
31 Mar 5.2 05:05:10 10° SSE 05:10:22 20° ESE 05:15:46 10° ENE visible
01 Apr 5.5 04:23:54 10° ESE 04:26:10 11° E 04:28:28 10° E visible
02 Apr 4.2 05:24:00 10° S 05:30:58 42° ESE 05:38:23 10° NE visible
03 Apr 4.8 04:40:29 10° SSE 04:46:33 27° ESE 04:52:55 10° NE visible
04 Apr 5.2 03:57:55 10° SE 04:02:17 16° ESE 04:06:47 10° ENE visible
04 Apr 3.3 05:44:23 10° SSW 05:51:59 79° ESE 06:00:07 10° NE visible
